RH
39 35 34 37 38 32 40 51 70 72 80 73 63 53 48 51 43 40 42 37 36 45 51 48 49 50 53 61 80 82 71 74 77 64 58 68 61 50
46 41 37 39 40 41 54 69 72 68 58 55 49 40 40 37 38 40 36 34 31 31 37 41 45 42 42 44 51 58 63 64 60 62 85 87 76 73
63 57 41 46 61 66 58 66 59 60 52 44 40 45 42 39 39 37 36 36 35 37 36 43 46 58 69 71 63 69 74 84 84 86 93 96 82 72
77 69 63 70 67 67 59 58 62 57 49 46 40 44 42 45 51 49 44 41 42 44 57 56 54 60 61 66 75 78 80 93 84 76 66 61 51 43
97 86 84 96 91 74 66 51 54 43 34 35 34 45 41 52 51 59 55 47 42 44 48 45 49 60 59 66 63 60 61 75 72 54 44 40 36 34
100 88 96 100 99 77 57 42 38 39 32 30 51 44 49 60 65 64 60 64 58 58 52 46 48 49 52 52 45 42 36 40 47 44 43 46 47 35
95 63 73 72 93 66 42 38 34 31 41 48 43 42 52 53 52 50 51 52 60 60 56 56 46 47 53 47 34 50 81 70 62 68 68 56 68 78
100 100 91 74 84 88 63 51 39 42 38 35 39 47 50 53 47 42 54 59 50 63 82 90 90 64 60 92 82 72 66 88 73 67 89 100 72 71
100 100 100 93 82 97 82 89 83 63 66 69 60 53 73 69 67 59 74 95 87 67 91 90 80 73 65 69 97 100 91 83 98 93 97 88 90 90
100 100 100 100 100 100 100 100 100 100 100 100 100 92 90 93 89 100 100 100 87 90 83 90 86 77 100 100 98 98 100 98 96 100 100 100 98 100
100 100 100 100 100 100 100 100 100 100 100 100 100 100 100 100 100 100 99 91 100 100 100 98 100 100 100 100 100 100 100 100 100 100 100 100 100 100
100 100 100 100 100 100 100 100 100 100 100 100 100 100 100 100 100 100 100 100 98 100 100 100 100 100 100 100 100 100 100 100 100 100 100 100 100 100
100 100 100 100 100 100 100 100 100 100 100 100 100 100 100 98 95 87 97 100 100 100 100 100 100 100 100 100 100 100 100 100 100 100 100 100 100 95
100 100 100 100 100 100 100 100 100 100 100 100 100 100 100 100 100 100 100 100 100 100 100 100 100 100 100 100 100 100 100 100 100 97 100 100 92 85
100 100 100 100 100 100 100 100 100 100 100 100 100 100 100 100 100 100 100 100 100 100 100 100 100 100 100 100 100 95 100 97 100 99 100 89 88 90
100 100 100 100 100 100 100 100 100 100 100 100 100 100 100 100 100 100 100 100 100 100 100 100 100 100 100 98 89 98 100 100 94 96 86 80 78 68
100 100 100 100 100 100 100 100 100 100 100 100 100 100 100 100 100 100 100 100 100 100 100 100 100 100 90 96 99 90 76 93 81 79 72 67 63 59
100 100 100 100 100 100 100 100 100 100 100 100 100 100 100 100 100 100 100 100 100 95 96 100 100 93 92 86 98 74 78 72 62 65 56 56 62 57
100 100 100 100 100 94 100 100 100 100 100 100 98 100 100 100 100 96 98 92 100 100 97 100 84 94 84 80 76 71 59 63 64 58 64 56 61 61
100 100 100 100 100 100 100 100 86 88 86 94 93 96 90 90 87 85 86 83 96 85 93 83 77 72 63 59 58 74 60 66 70 68 66 54 45 51
100 100 100 100 100 100 100 100 100 100 100 96 83 96 78 78 95 91 93 88 84 77 76 70 60 55 56 86 75 77 83 74 79 70 67 57 49 45
100 100 100 100 100 100 100 100 100 90 84 90 75 84 85 84 73 73 80 69 64 64 57 59 64 71 75 76 86 92 88 81 73 51 43 34 33 30
100 100 100 100 100 100 100 100 92 85 94 86 82 79 81 78 66 72 65 67 69 70 67 78 88 76 82 82 81 78 68 63 54 42 35 24 19 16
Wind_Speed
65 63 63 62 59 55 52 49 50 52 50 52 51 53 53 54 52 50 50 47 48 48 50 52 54 58 60 61 63 64 66 69 71 71 73 74 76 78
68 68 68 65 60 54 52 53 53 53 52 53 54 54 54 53 51 49 48 46 46 46 48 51 54 57 58 60 63 66 69 71 73 76 79 82 83 86
71 71 71 66 61 60 59 60 60 59 57 57 56 56 56 54 49 49 50 51 51 51 53 55 57 60 63 65 67 70 73 76 78 81 85 89 90 93
75 70 69 67 65 67 67 66 66 64 63 63 59 56 54 53 54 57 58 59 58 59 62 65 66 68 70 72 74 76 79 80 84 89 93 95 97 99
71 67 69 70 71 73 73 73 71 72 72 67 65 58 59 60 62 64 66 66 68 69 70 71 74 75 78 81 82 85 88 90 95 99 102 103 104 106
73 76 75 76 78 78 82 81 80 79 74 74 61 65 67 69 71 72 73 74 76 80 80 81 84 85 88 90 92 95 96 97 99 103 106 108 110 112
66 80 80 83 86 87 86 84 83 78 75 72 70 74 74 77 80 80 82 82 85 87 89 90 92 94 96 98 99 99 101 104 107 110 111 113 115 115
78 79 87 89 84 86 87 88 85 83 87 82 81 86 87 86 88 88 89 93 94 96 96 98 99 103 103 103 105 108 110 110 113 117 116 116 124 125
89 93 89 91 87 90 89 87 91 92 89 91 91 92 94 96 96 97 97 99 102 102 104 106 107 108 110 111 113 116 116 119 119 122 123 126 127 129
93 94 91 98 89 92 92 92 95 96 96 96 98 99 99 102 104 104 105 106 107 111 112 112 112 114 116 119 119 118 120 122 125 124 127 129 129 132
96 96 97 96 101 101 99 100 100 100 102 102 104 105 104 105 107 110 111 110 111 115 115 116 118 119 119 119 120 123 123 124 129 130 128 132 132 131
104 103 104 103 105 106 105 105 105 105 107 110 110 110 111 111 112 111 114 116 115 117 120 119 120 120 122 125 126 127 130 129 127 128 130 132 135 139
109 108 112 110 109 109 109 108 110 109 110 113 114 115 116 117 117 118 116 118 122 123 122 122 122 125 123 125 127 128 129 131 133 135 136 138 143 147
116 115 116 117 115 114 113 113 114 114 116 118 119 118 117 118 120 123 125 126 125 123 124 125 126 128 130 131 131 134 135 136 137 139 142 144 144 150
120 120 122 123 122 119 118 118 118 120 121 121 122 123 126 126 125 126 127 127 127 129 130 132 133 134 135 134 136 139 138 141 141 144 146 153 151 153
126 125 129 128 125 125 124 124 124 124 125 125 126 128 127 128 128 130 130 130 132 133 134 136 136 137 137 140 143 143 142 144 150 149 148 153 150 146
131 132 132 131 129 130 130 130 131 131 129 130 131 131 131 132 132 133 134 135 138 137 137 138 140 141 144 143 143 146 152 151 152 148 148 138 133 129
133 137 135 139 135 134 135 134 134 135 135 134 134 135 136 137 138 137 139 138 139 141 141 141 144 145 147 153 149 152 150 153 145 132 127 126 130 129
134 135 137 140 140 141 142 141 141 139 138 139 138 139 141 141 142 140 142 144 142 143 145 146 148 150 148 148 148 147 141 132 127 128 130 129 129 127
142 141 140 139 142 144 143 144 144 144 143 144 145 144 146 144 146 146 146 146 147 149 148 149 152 150 147 140 133 131 125 127 129 130 133 132 128 128
147 147 148 148 147 148 148 149 147 146 145 147 147 146 149 145 146 146 148 147 149 148 142 137 135 132 126 124 124 128 131 132 132 134 134 130 129 125
147 148 148 149 149 150 149 150 151 152 149 149 151 151 150 151 149 150 146 145 133 129 126 126 125 123 123 123 124 127 129 134 135 132 127 122 118 114
149 149 149 151 151 152 150 149 155 152 153 153 151 150 148 150 142 136 130 126 126 125 124 124 126 126 125 127 129 132 129 129 130 126 124 119 113 108
Wind_Direction
270 269 268 267 266 268 270 269 272 273 272 268 267 267 270 276 277 279 281 283 284 283 284 284 286 288 288 287 289 292 292 294 297 299 300 300 299 297
267 267 267 267 267 266 267 268 267 267 268 267 267 269 274 277 278 281 281 285 285 285 286 285 285 289 290 292 293 294 293 294 296 297 298 298 297 297
265 264 267 265 263 265 265 267 267 267 267 268 270 274 277 281 280 281 282 284 285 286 288 289 290 292 294 294 293 293 294 295 295 295 294 294 294 294
264 264 267 263 261 264 266 267 269 267 269 270 274 277 280 281 280 286 287 287 288 289 288 289 292 292 292 294 294 295 294 293 293 292 293 293 293 296
262 263 264 262 262 264 265 266 267 270 272 272 275 274 278 282 284 285 286 289 289 290 291 292 292 294 293 292 292 292 293 293 295 296 296 297 297 296
258 259 258 258 260 262 265 267 268 270 275 276 272 278 281 282 284 285 287 288 290 292 292 293 293 292 293 294 293 292 294 296 296 295 297 297 299 299
254 254 257 261 261 264 270 274 274 274 276 268 270 278 280 281 283 285 287 289 289 291 291 293 293 293 292 292 295 296 297 297 298 299 299 300 301 300
243 247 262 266 262 263 273 274 273 273 278 278 278 277 282 285 286 288 289 289 290 293 295 294 293 294 299 299 298 297 299 299 298 301 304 303 303 304
254 253 256 262 265 268 274 270 271 277 279 280 281 282 282 285 287 288 290 290 290 293 295 295 295 297 296 298 298 297 298 301 302 302 303 303 304 304
256 256 257 255 257 262 265 265 269 269 272 275 278 280 282 284 286 287 289 288 290 291 293 295 296 296 295 294 295 296 297 300 301 302 302 304 304 304
258 258 256 255 256 262 264 265 267 268 269 272 274 275 278 278 280 282 285 287 284 289 292 292 290 290 291 293 295 297 299 299 300 303 301 300 302 300
257 258 257 257 258 260 262 264 265 265 266 270 273 274 276 277 278 279 279 283 287 285 287 289 289 290 291 295 296 297 297 300 300 299 298 299 299 301
253 255 257 258 258 260 261 262 264 266 266 268 270 272 273 276 277 279 280 279 281 284 286 289 290 292 294 294 295 296 297 297 298 297 298 298 299 300
252 254 255 258 259 260 262 262 263 265 265 266 267 269 270 272 273 274 277 280 283 284 285 287 289 290 292 292 292 294 294 295 296 296 297 299 299 297
253 254 256 257 259 260 261 262 263 264 265 267 269 269 270 273 276 277 279 280 282 285 286 287 288 288 290 291 291 293 293 295 294 298 298 296 298 297
252 254 256 257 259 260 262 264 265 266 267 269 269 271 273 274 275 277 278 280 282 283 286 285 288 289 289 290 290 293 293 294 294 297 295 296 297 296
253 255 256 260 260 262 262 264 265 266 268 269 270 272 274 274 276 277 280 282 283 285 286 287 288 290 289 291 291 291 292 293 293 295 295 297 298 300
255 257 258 260 261 264 265 266 267 267 268 270 272 273 274 276 277 279 280 283 283 284 286 287 287 288 289 291 290 291 292 293 296 297 298 299 300 301
257 258 260 262 264 262 263 265 266 268 269 269 273 273 274 276 277 280 280 282 283 285 285 287 287 288 291 290 293 293 293 295 298 300 300 303 301 301
255 257 257 259 261 263 264 265 267 269 270 271 272 274 274 276 277 279 281 283 283 285 287 286 287 288 290 291 293 294 296 298 298 300 301 302 302 302
254 255 258 259 260 262 266 266 267 269 270 270 272 274 274 278 278 280 280 283 283 287 287 287 289 290 294 294 296 297 298 297 299 300 300 301 301 301
253 256 257 259 261 261 263 266 268 268 270 271 273 275 276 279 281 281 284 285 287 288 290 291 292 293 294 295 294 295 297 297 298 299 299 299 297 297
254 256 258 260 261 263 266 267 268 271 272 274 276 277 279 281 284 284 286 286 289 291 292 292 293 295 296 296 296 295 296 296 297 298 299 298 299 298